Location: Hains Lake
(37.8540°N, 99.8578°W)
Time: 09:03:35
(UTC+00:00)

Vanguard 1 - Pass Details

Date: 05 December 2021
Orbit: 652 x 3830 km, 34.2° (Epoch: 24 January)

Event Time Altitude Azimuth Distance (km) Brightness Sun altitude
Rises 05:01:39 0° 224° (SW) 6,546 14.3 -65.5°
Reaches altitude 10° 05:05:34 10° 220° (SW) 5,868 14.0 -66.2°
Enters shadow 05:07:17 15° 218° (SW) 5,597 13.8 -66.5°
Exits shadow 05:48:41 - 78° (ENE) 6,854 14.2 -72.2°
Sets 05:51:30 0° 76° (ENE) 7,322 14.5 -72.5°
